Yatton Keynell, United Kingdom

8:05 AM BST on April 23, 2019 (GMT +0100)
Yatton Keynell

Weather History for 03740 - August, 2012

Change the Weather History Date:

Sunday, August 26, 2012

  Actual Average Record
Temperature  
Mean Temperature 58 °F -  
Max Temperature 65 °F 65 °F - ()
Min Temperature 51 °F 50 °F - ()
Degree Days  
Heating Degree Days 7    
Growing Degree Days 8 (Base 50)    
Moisture  
Dew Point 51 °F    
Average Humidity 76    
Maximum Humidity 100    
Minimum Humidity 39    
Precipitation  
Precipitation 0.00 in 0.08 in - ()
Sea Level Pressure  
Sea Level Pressure 29.99 in    
Wind  
Wind Speed 9 mph ()    
Max Wind Speed 13 mph    
Max Gust Speed -    
T = Trace of Precipitation, MM = Missing Value Source: Averaged Metar Reports

Daily Weather History Graph

Daily Weather History Graph

Search for Another Location

Airport or City:

Astronomy

Aug. 26, 2012 Rise Set
Actual Time 6:11 AM BST 8:06 PM BST
Civil Twilight 5:35 AM BST 8:42 PM BST
Nautical Twilight 4:51 AM BST 9:26 PM BST
Astronomical Twilight 4:01 AM BST 10:15 PM BST
Moon 4:46 PM BST (8/26) 12:13 AM BST (8/26)
Length of Visible Light 15h 06m
Length of Day
13h 55m
Waxing Gibbous, 71% of the Moon is Illuminated
Aug 26
Waxing Gibbous
Aug 31
Full
Sep 8
Last Quarter
Sep 16
New
Sep 22
First Quarter

Hourly Weather History & Observations

Time (BST) Temp. Dew Point Humidity Pressure Visibility Wind Dir Wind Speed Gust Speed Precip Events Conditions
12:50 AM 55 °F 52 °F 84% 29.83 in - West 12.7 mph - -  
12:50 AM 55.4 °F 51.8 °F 88% 29.83 in - West 12.7 mph - N/A   Unknown
1:50 AM 55.4 °F 51.8 °F 88% 29.83 in - West 11.5 mph - N/A   Unknown
2:50 AM 55.4 °F 51.8 °F 88% 29.86 in - West 9.2 mph - N/A   Mostly Cloudy
3:50 AM 54 °F 51 °F 88% 29.89 in - WSW 11.5 mph - -  
3:50 AM 53.6 °F 51.8 °F 94% 29.89 in - WSW 11.5 mph - N/A   Unknown
4:50 AM 53.6 °F 51.8 °F 94% 29.89 in - WSW 9.2 mph - N/A   Partly Cloudy
5:50 AM 51.8 °F 50.0 °F 94% 29.92 in - SW 6.9 mph - N/A   Unknown
6:50 AM 52 °F 51 °F 95% 29.95 in - SSW 6.9 mph - -  
6:50 AM 51.8 °F 51.8 °F 100% 29.92 in - SSW 6.9 mph - N/A   Unknown
7:50 AM 53.6 °F 51.8 °F 94% 29.95 in - SW 6.9 mph - N/A   Unknown
8:50 AM 57.2 °F 53.6 °F 88% 29.98 in - WSW 5.8 mph - N/A   Mostly Cloudy
9:50 AM 60 °F 51 °F 65% 30.01 in - West 11.5 mph - -   Scattered Clouds
9:50 AM 60.8 °F 51.8 °F 72% 30.01 in - West 11.5 mph - N/A   Partly Cloudy
10:50 AM 62.6 °F 51.8 °F 68% 30.01 in - West 10.4 mph - N/A   Partly Cloudy
11:50 AM 64.4 °F 51.8 °F 64% 30.04 in - West 9.2 mph - N/A   Scattered Clouds
12:50 PM 63 °F 47 °F 44% 30.04 in - WSW 10.4 mph - -   Mostly Cloudy
12:50 PM 62.6 °F 46.4 °F 55% 30.04 in - WSW 10.4 mph - N/A   Mostly Cloudy
1:50 PM 64.4 °F 48.2 °F 56% 30.04 in - WSW 11.5 mph - N/A   Mostly Cloudy
2:50 PM 64.4 °F 48.2 °F 56% 30.04 in - WSW 12.7 mph - N/A   Partly Cloudy
3:50 PM 65 °F 46 °F 39% 30.05 in - WSW 11.5 mph - -   Scattered Clouds
3:50 PM 64.4 °F 46.4 °F 52% 30.04 in - WSW 11.5 mph - N/A   Partly Cloudy
4:50 PM 62.6 °F 44.6 °F 52% 30.06 in - WSW 11.5 mph - N/A   Unknown
5:50 PM 60.8 °F 46.4 °F 59% 30.06 in - WSW 8.1 mph - N/A   Unknown
6:50 PM 60.8 °F 50.0 °F 68% 30.06 in - SW 5.8 mph - N/A   Unknown
7:50 PM 59.0 °F 50.0 °F 72% 30.06 in - South 3.5 mph - N/A   Partly Cloudy
8:50 PM 57.2 °F 53.6 °F 88% 30.06 in - SSW 3.5 mph - N/A   Mostly Cloudy
9:50 PM 57 °F 54 °F 86% 30.08 in - South 3.5 mph - -   Mostly Cloudy
9:50 PM 57.2 °F 53.6 °F 88% 30.06 in - South 3.5 mph - N/A   Mostly Cloudy
10:50 PM 55.4 °F 53.6 °F 94% 30.06 in - South 4.6 mph - N/A   Partly Cloudy
11:50 PM 55.4 °F 53.6 °F 94% 30.06 in - South 4.6 mph - N/A   Unknown